COSMOS 2132

Satellite information

Favourite Embed

Satellite Type and Status

PAYLOADIN ORBIT

Key statistics

Satellite COSMOS 2132 at a glance.

Uptime

12678

Days in orbit

Revolutions

≈ 12.6

Per day

Orbit

LEO

Low Earth Orbit

Inclination

74.0

Latest

Satellite identification and parameters

Extended collection of information and parameters for COSMOS 2132.

Object identification

Identified? True

Debris? False

Object name: COSMOS 2132

International designator: 1991-009H

Object number (NORAD): 21107

Object ID (CCSDS): 21107

Country: COMMONWEALTH OF INDEPENDENT STATES (CIS)

Current information (Y/N): Y

RCS size: MEDIUM

Orbital parameters

Period: 114.696 minutes

Inclination: 74.0278 deg

SMA: 7819.72 km

Apoapsis: 1468.674 km

Periapsis: 1414.497 km

RAAN: 93.8654 deg

Eccentricy: 0.00346415

Argument of periapsis: 293.2701 deg

Mean anomaly: 136.6037 deg

Mean motion: 12.55497739 rev/day

Mean motion (dot): 0.00000001 rev/day2

B* drag term: 0.00010721797 1/REarth

Two-line elements (TLE)

Creation date: Oct. 28, 2025, 7:11 p.m.

Reference frame: TEME

Reference center: EARTH

Epoch: Oct. 28, 2025, 12:59 p.m. UTC

TLE line 0: 0 COSMOS 2132

TLE line 1: 1 21107U 91009H 25301.54138403 .00000001 00000-0 10722-3 0 9995

TLE line 2: 2 21107 74.0278 93.8654 0034642 293.2701 136.6037 12.55497739590720

Live tracking on map

Real-time ground track for satellite COSMOS 2132.

In-orbit conjunctions

A list of the most updated potential collisions computed for object COSMOS 2132.

Target Orbit TCA Probability of collision Miss distance Type
THORAD DELTA 1 DEB SSO 2025-08-05 02:11:15 0.0001260528 505.0 (m) DEBRIS

Associated space launch

Military communications satellites

COSMOS 2132 was lifted into orbit during the mission ‘Kosmos-3M | Strela-1M 353-360’, on board a Kosmos-3M space rocket.

The launch took place on Feb. 12, 1991, 2:44 a.m. from 133/3 (133L).

For more information about the launch, click the button.

Launch to space Kosmos-3M | Strela-1M 353-360
Kosmos-3M | Strela-1M 353-360

Agency: N/A

Status: Launch Successful

Launch date: Feb. 12, 1991, 2:44 a.m. UTC

Rocket: Kosmos-3M

Launch pad: 133/3 (133L)

Location: Plesetsk Cosmodrome, Russian Federation

...

Latest news about this satellite

There are no fresh news available about this satellite. Check back as we update our databases every day.


Newsletter sign-up

Weekly statistics, charts and insights to help you stay on top of the space industry.